This demonstration page uses our WeatherBlox Daily Observations layout. Learn more.

Left ArrowRight Arrow

39.01783, -85.05884

Hourly Observations for January 11, 2020

Temp ( °F °C ) Dew Point ( °F °C ) Humidity (%) Winds ( mph kmh ) Pressure ( in mb ) Visibility ( mi km ) Precip ( " mm )
12:52 am 00:52 Cloudy with Light Rain 57 13.9 51 10.6 81 81 S 17 28 29.96 1015 10 16 0.00 0.00
1:52 am 01:52 Mostly Cloudy 58 14.4 52 11.1 81 81 S 18 30 29.91 1013 10 16 0.00 0.00
2:52 am 02:52 Cloudy 58 14.4 52 11.1 81 81 SSE 17 28 29.88 1012 10 16 0.00 0.00
3:52 am 03:52 Mostly Cloudy 59 15 51 10.6 75 75 S 21 33 29.86 1011 10 16 0.00 0.00
4:52 am 04:52 Cloudy with Heavy Rain 59 15 54 12.2 83 83 S 21 33 29.86 1011 2 3 0.04 1.02
4:59 am 04:59 Cloudy with Light Rain 59 15 54 12.2 83 83 S 20 31 29.85 1011 10 16 0.02 0.51
5:52 am 05:52 Cloudy 60 15.6 54 12.2 80 80 S 18 30 29.82 1010 10 16 0.03 0.76
6:52 am 06:52 Cloudy 60 15.6 53 11.7 78 78 S 18 30 29.79 1009 10 16 0.00 0.00
7:52 am 07:52 Cloudy 60 15.6 53 11.7 78 78 SSE 20 31 29.77 1008 10 16 0.00 0.00
8:52 am 08:52 Cloudy with Light Rain 61 16.1 53 11.7 75 75 SSE 21 33 29.73 1007 10 16 0.00 0.00
9:52 am 09:52 Cloudy 63 17.2 55 12.8 76 76 SSE 22 35 29.73 1007 10 16 0.00 0.00
10:52 am 10:52 Cloudy with Light Rain 66 18.9 56 13.3 70 70 S 25 41 29.73 1007 9 14 0.00 0.00
11:52 am 11:52 Cloudy with Light Rain 67 19.4 59 15 76 76 S 26 43 29.69 1006 9 14 0.00 0.00
12:04 pm 12:04 Cloudy with Rain 66 18.9 60 15.6 81 81 S 25 41 29.71 1006 1 2 0.01 0.25
12:08 pm 12:08 Cloudy with Heavy Rain 65 18.3 60 15.6 84 84 S 24 39 29.72 1007 1 1 0.06 1.52
12:10 pm 12:10 Cloudy with Heavy Rain 64 17.8 60 15.6 87 87 SSW 23 37 29.73 1007 1 1 0.11 2.79
12:18 pm 12:18 Cloudy with Rain 64 17.8 60 15.6 87 87 SSW 17 28 29.73 1007 3 5 0.21 5.33
12:52 pm 12:52 Cloudy with Light Rain 63 17.2 60 15.6 90 90 SSW 13 20 29.72 1007 8 13 0.26 6.60
1:52 pm 13:52 Cloudy with Light Rain 62 16.7 58 14.4 86 86 SSW 14 22 29.72 1007 6 10 0.03 0.76
2:52 pm 14:52 Cloudy with Light Rain 61 16.1 58 14.4 90 90 SSW 13 20 29.69 1006 6 10 0.05 1.27
3:52 pm 15:52 Cloudy with Light Rain 61 16.1 57 13.9 87 87 SSW 14 22 29.71 1006 10 16 0.00 0.00
4:52 pm 16:52 Cloudy with Rain 60 15.6 56 13.3 86 86 SSE 23 37 29.67 1005 4 6 0.06 1.52
5:52 pm 17:52 Cloudy with Light Rain 60 15.6 57 13.9 90 90 SE 26 43 29.60 1002 6 10 0.11 2.79
6:02 pm 18:02 Mostly Cloudy with Light Rain 60 15.6 56 13.3 86 86 SE 24 39 29.60 1002 10 16 0.01 0.25
6:52 pm 18:52 Cloudy 60 15.6 56 13.3 86 86 S 14 22 29.62 1003 10 16 0.02 0.51
7:10 pm 19:10 Cloudy 60 15.6 56 13.3 86 86 S 13 20 29.62 1003 10 16 0.00 0.00
7:38 pm 19:38 Cloudy with Light Rain 59 15 57 13.9 93 93 S 12 19 29.61 1003 3 5 0.01 0.25
7:52 pm 19:52 Cloudy with Light Rain 59 15 57 13.9 93 93 S 12 19 29.61 1003 6 10 0.02 0.51
8:52 pm 20:52 Cloudy 60 15.6 57 13.9 90 90 S 17 28 29.58 1002 10 16 0.00 0.00
9:08 pm 21:08 Cloudy 61 16.1 57 13.9 87 87 SSW 22 35 29.59 1002 10 16 0.00 0.00
9:33 pm 21:33 Cloudy with Rain 54 12.2 50 10 87 87 W 26 43 29.66 1005 3 4 0.00 0.00
9:44 pm 21:44 Cloudy with Light Rain 52 11.1 48 8.9 86 86 W 22 35 29.69 1005 6 10 0.05 1.27
9:52 pm 21:52 Cloudy with Light Rain 52 11.1 48 8.9 86 86 WSW 8 13 29.67 1005 10 16 0.06 1.52
10:39 pm 22:39 Mostly Cloudy 50 10 47 8.3 89 89 SW 16 26 29.73 1007 10 16 0.00 0.00
10:52 pm 22:52 Mostly Cloudy 50 10 47 8.3 89 89 WSW 21 33 29.73 1007 10 16 0.00 0.00
11:52 pm 23:52 Cloudy with Light Rain 44 6.7 41 5 89 89 WSW 23 37 29.85 1011 6 10 0.00 0.00

Powered by AerisWeather